133  
ASUS44 KMAF 240310  
RWRMAF  
MIDLAND AREA WEATHER ROUNDUP  
NATIONAL WEATHER SERVICE MIDLAND TX  
1000 PM CDT TUE JUL 23 2019  
   
..IN SOUTHWEST TEXAS AND SOUTHEAST NEW MEXICO
 
 
 
CITY SKY/WX TMP DP RH WIND PRES REMARKS
 
ALPINE FAIR 72 52 49 CALM 30.32S  
ANDREWS FAIR 74 56 53 E5 30.21S  
ARTESIA FAIR 79 61 53 SE8 30.22  
BIG SPRING FAIR 76 50 39 E8 30.20S  
CARLSBAD FAIR 77 60 55 E7 30.18S  
DRYDEN N/A 82 51 34 NE8 30.11R  
FORT STOCKTON FAIR 77 57 50 E7 30.18R  
GUAD PASS FAIR 73 54 51 E24 30.32R  
HOBBS FAIR 73 59 60 SE6 30.23R  
LAMESA NOT AVBL  
MARFA FAIR 69 50 50 NE9 30.30R  
MIDLAND AIRPK FAIR 80 52 38 E9 30.19S  
MIDLAND INTL FAIR 77 58 51 E8 30.19R  
ODESSA FAIR 77 55 46 E9 30.20R  
PECOS FAIR 81 53 38 E8 30.16R  
PRESIDIO FAIR 87 52 30 NE15 30.14R  
SEMINOLE FAIR 73 59 60 E6 30.26R  
SNYDER FAIR 76 50 39 E6 30.19R  
WINK FAIR 81 54 39 E7 30.16S  

   
..OTHER STATIONS IN TEXAS
 
 
 
CITY SKY/WX TMP DP RH WIND PRES REMARKS
 
ABILENE FAIR 75 53 46 E7 30.16R  
AMARILLO FAIR 73 51 46 E10 30.24R  
AUSTIN MOCLDY 81 63 54 NE5 30.06R  
BROWNSVILLE FAIR 81 77 88 CALM 29.99R  
CORPUS CHRISTI MOCLDY 76 75 97 NW3 30.00R  
DALLAS FTW FAIR 80 56 43 NE8 30.07R  
DEL RIO FAIR 87 50 27 NE7 30.03R  
EL PASO FAIR 84 55 36 SE10 30.17R  
HOUSTON INT FAIR 80 66 62 NE6 30.02R  
LUBBOCK FAIR 74 52 46 E8 30.22R  
SAN ANGELO FAIR 75 52 44 NE5 30.15R  
SAN ANTONIO FAIR 84 58 40 E7 30.07R  
WACO MOCLDY 77 60 55 NE5 30.08R  
WICHITA FALLS FAIR 75 49 39 E6 30.19R  

   
..OTHER LOCATIONS IN NEW MEXICO
 
 
 
CITY SKY/WX TMP DP RH WIND PRES REMARKS
 
ALAMOGORDO FAIR 81 55 41 CALM 30.21  
ALBUQUERQUE MOCLDY 76 58 53 E12 30.27R  
CANNON AFB FAIR 74 55 51 SE7 30.28R  
CLOVIS FAIR 75 54 47 SE9 30.28R  
HOLLOMAN AFB CLOUDY 83 56 39 SE10 30.22R  
ROSWELL FAIR 80 61 52 S7 30.21R  
RUIDOSO N/A 63 59 88 SE5 30.45  
SANTA FE CLOUDY 74 51 44 SE10 30.36R  
TRUTH OR CONSE MOCLDY 81 57 43 SE9 30.25R  
TUCUMCARI FAIR 77 57 50 S9 30.21R  

 
 
 
CLICK HERE TO GO TO PREVIOUS BULLETINS.

The Nexlab TX Page
The Nexlab NM Page Main Text Page